Bellefontaine, OH

10:41 PM EDT on August 16, 2017 (GMT -0400)
Bellefontaine

Weather History for KEDJ - June, 2013

Change the Weather History Date:

Thursday, June 27, 2013

  Actual Average (KDLZ) Record (KDLZ)
Temperature  
Mean Temperature 76 °F -  
Max Temperature 84 °F 83 °F 99 °F (1944)
Min Temperature 68 °F 58 °F 44 °F (1988)
Cooling Degree Days 11    
Growing Degree Days 26 (Base 50)    
Moisture  
Dew Point 69 °F    
Average Humidity 82    
Maximum Humidity 100    
Minimum Humidity 55    
Precipitation  
Precipitation 0.00 in - - ()
Sea Level Pressure  
Sea Level Pressure 29.74 in    
Wind  
Wind Speed 7 mph (WSW)    
Max Wind Speed 14 mph    
Max Gust Speed 20 mph    
Visibility 7 miles    
Events      
Averages and records for this station are not official NWS values.
T = Trace of Precipitation, MM = Missing Value Source: NWS Daily Summary

Daily Weather History Graph

Daily Weather History Graph

Search for Another Location

Airport or City:

Trip Planner

Search our weather history database for the weather conditions in past years. The results will help you decide how hot, cold, wet, or windy it might be!

Date:

Astronomy

Jun. 27, 2013 Rise Set
Actual Time 6:07 AM EDT 9:09 PM EDT
Civil Twilight 5:34 AM EDT 9:42 PM EDT
Nautical Twilight 4:52 AM EDT 10:24 PM EDT
Astronomical Twilight 4:02 AM EDT 11:13 PM EDT
Moon No Moon Rise 11:08 AM EDT (6/27)
Length of Visible Light 16h 08m
Length of Day
15h 02m
Waning Gibbous, 76% of the Moon is Illuminated
Jun 27
Waning Gibbous
Jun 30
Last Quarter
Jul 8
New
Jul 15
First Quarter
Jul 22
Full

Hourly Weather History & Observations

Time (EDT) Temp. Heat Index Dew Point Humidity Pressure Visibility Wind Dir Wind Speed Gust Speed Precip Events Conditions
12:00 AM 69.8 °F - 69.8 °F 100% 29.80 in 10.0 mi South 6.9 mph - 0.00 in   Overcast
12:20 AM 69.8 °F - 69.8 °F 100% 29.80 in 9.0 mi South 6.9 mph - 0.00 in   Overcast
12:40 AM 69.8 °F - 69.8 °F 100% 29.79 in 7.0 mi SSE 6.9 mph - 0.00 in   Mostly Cloudy
1:00 AM 69.8 °F - 69.8 °F 100% 29.78 in 7.0 mi South 6.9 mph - 0.00 in   Mostly Cloudy
1:20 AM 69.8 °F - 69.8 °F 100% 29.77 in 6.0 mi South 6.9 mph - 0.00 in   Mostly Cloudy
1:40 AM 69.8 °F - 69.8 °F 100% 29.76 in 5.0 mi South 8.1 mph - 0.00 in   Mostly Cloudy
2:00 AM 69.8 °F - 69.8 °F 100% 29.76 in 5.0 mi SSE 5.8 mph - 0.00 in   Mostly Cloudy
2:20 AM 69.8 °F - 69.8 °F 100% 29.76 in 5.0 mi SSW 6.9 mph - 0.00 in   Overcast
2:40 AM 69.8 °F - 69.8 °F 100% 29.76 in 5.0 mi South 6.9 mph - 0.00 in   Mostly Cloudy
3:00 AM 69.8 °F - 69.8 °F 100% 29.76 in 5.0 mi South 5.8 mph - 0.00 in   Mostly Cloudy
3:20 AM 69.8 °F - 69.8 °F 100% 29.76 in 5.0 mi South 4.6 mph - 0.00 in   Mostly Cloudy
3:40 AM 69.8 °F - 69.8 °F 100% 29.75 in 5.0 mi SSW 5.8 mph - 0.00 in   Mostly Cloudy
4:00 AM 69.8 °F - 69.8 °F 100% 29.75 in 5.0 mi SSW 4.6 mph - 0.00 in   Mostly Cloudy
4:20 AM 69.8 °F - 69.8 °F 100% 29.75 in 5.0 mi SW 6.9 mph - 0.00 in   Overcast
4:40 AM 69.8 °F - 69.8 °F 100% 29.75 in 5.0 mi SW 6.9 mph - 0.00 in   Overcast
5:00 AM 69.8 °F - 69.8 °F 100% 29.75 in 5.0 mi SSW 6.9 mph - 0.00 in   Overcast
5:20 AM 69.8 °F - 69.8 °F 100% 29.75 in 5.0 mi SW 8.1 mph - 0.00 in   Overcast
5:40 AM 68.0 °F - 68.0 °F 100% 29.74 in 3.0 mi SSW 4.6 mph - 0.00 in   Overcast
6:00 AM 68.0 °F - 68.0 °F 100% 29.75 in 4.0 mi SSW 4.6 mph - 0.00 in   Overcast
6:20 AM 68.0 °F - 68.0 °F 100% 29.75 in 2.5 mi SSW 6.9 mph - 0.00 in   Mostly Cloudy
6:40 AM 68.0 °F - 68.0 °F 100% 29.75 in 1.8 mi SSW 5.8 mph - 0.00 in   Overcast
7:00 AM 68.0 °F - 68.0 °F 100% 29.76 in 1.2 mi SW 8.1 mph - 0.00 in   Overcast
7:20 AM 68.0 °F - 68.0 °F 100% 29.75 in 0.8 mi SW 6.9 mph - 0.00 in   Overcast
7:40 AM 68.0 °F - - N/A% 29.76 in 0.8 mi SW 5.8 mph - 0.00 in   Overcast
8:00 AM 68.0 °F - - N/A% 29.76 in 1.0 mi SW 5.8 mph - 0.00 in   Overcast
8:20 AM 68.0 °F - - N/A% 29.75 in 1.5 mi WSW 4.6 mph - 0.00 in   Overcast
8:40 AM 68.0 °F - - N/A% 29.75 in 1.8 mi WSW 6.9 mph - 0.00 in   Overcast
9:00 AM 69.8 °F - - N/A% 29.75 in 1.2 mi West 6.9 mph - 0.00 in   Overcast
9:20 AM 69.8 °F - - N/A% 29.75 in 1.8 mi West 5.8 mph - 0.00 in   Overcast
9:40 AM 69.8 °F - - N/A% 29.75 in 2.5 mi West 6.9 mph - 0.00 in   Mostly Cloudy
10:00 AM 69.8 °F - - N/A% 29.75 in 3.0 mi WNW 5.8 mph - 0.00 in   Mostly Cloudy
10:20 AM 71.6 °F - 71.6 °F 100% 29.75 in 5.0 mi West 6.9 mph - 0.00 in   Mostly Cloudy
10:40 AM 71.6 °F - 71.6 °F 100% 29.75 in 9.0 mi WNW 8.1 mph - 0.00 in   Mostly Cloudy
11:00 AM 73.4 °F - 71.6 °F 94% 29.75 in 10.0 mi WNW 9.2 mph - 0.00 in   Mostly Cloudy
11:20 AM 75.2 °F - 69.8 °F 83% 29.75 in 10.0 mi NW 9.2 mph - 0.00 in   Mostly Cloudy
11:40 AM 73.4 °F - 69.8 °F 88% 29.75 in 10.0 mi WNW 6.9 mph - 0.00 in   Mostly Cloudy
12:00 PM 77.0 °F - 69.8 °F 78% 29.75 in 10.0 mi WNW 9.2 mph - 0.00 in   Mostly Cloudy
12:20 PM 77.0 °F - 69.8 °F 78% 29.76 in 10.0 mi WNW 9.2 mph - 0.00 in   Scattered Clouds
12:40 PM 78.8 °F - 69.8 °F 74% 29.76 in 10.0 mi West 9.2 mph - 0.00 in   Scattered Clouds
1:00 PM 78.8 °F - 68.0 °F 69% 29.76 in 10.0 mi NW 9.2 mph - 0.00 in   Scattered Clouds
1:20 PM 80.6 °F 83.2 °F 68.0 °F 65% 29.75 in 10.0 mi WNW 9.2 mph - 0.00 in   Scattered Clouds
1:40 PM 80.6 °F 82.7 °F 66.2 °F 61% 29.75 in 10.0 mi NNW 9.2 mph - 0.00 in   Mostly Cloudy
2:00 PM 80.6 °F 82.7 °F 66.2 °F 61% 29.75 in 10.0 mi WNW 10.4 mph - 0.00 in   Scattered Clouds
2:20 PM 80.6 °F 82.7 °F 66.2 °F 61% 29.75 in 10.0 mi West 11.5 mph - 0.00 in   Scattered Clouds
2:40 PM 80.6 °F 83.2 °F 68.0 °F 65% 29.75 in 10.0 mi West 8.1 mph - 0.00 in   Mostly Cloudy
3:00 PM 82.4 °F 86.3 °F 69.8 °F 66% 29.74 in 10.0 mi West 11.5 mph 19.6 mph 0.00 in   Scattered Clouds
3:20 PM 80.6 °F 82.7 °F 66.2 °F 61% 29.74 in 10.0 mi WNW 10.4 mph 18.4 mph 0.00 in   Scattered Clouds
3:40 PM 82.4 °F 85.4 °F 68.0 °F 62% 29.74 in 10.0 mi West 10.4 mph 18.4 mph 0.00 in   Scattered Clouds
4:00 PM 82.4 °F 85.4 °F 68.0 °F 62% 29.73 in 10.0 mi West 9.2 mph - 0.00 in   Scattered Clouds
4:20 PM 82.4 °F 85.4 °F 68.0 °F 62% 29.72 in 10.0 mi West 9.2 mph - 0.00 in   Mostly Cloudy
4:40 PM 84.2 °F 86.6 °F 66.2 °F 55% 29.72 in 10.0 mi West 12.7 mph 16.1 mph 0.00 in   Mostly Cloudy
5:00 PM 84.2 °F 86.6 °F 66.2 °F 55% 29.71 in 10.0 mi West 13.8 mph - 0.00 in   Scattered Clouds
5:20 PM 84.2 °F 86.6 °F 66.2 °F 55% 29.71 in 10.0 mi West 11.5 mph - 0.00 in   Mostly Cloudy
5:40 PM 82.4 °F 85.4 °F 68.0 °F 62% 29.72 in 10.0 mi WNW 9.2 mph - 0.00 in   Mostly Cloudy
6:00 PM 82.4 °F 85.4 °F 68.0 °F 62% 29.72 in 10.0 mi WNW 10.4 mph 18.4 mph 0.00 in   Scattered Clouds
6:20 PM 82.4 °F 84.6 °F 66.2 °F 58% 29.72 in 10.0 mi WNW 11.5 mph 19.6 mph 0.00 in   Scattered Clouds
6:40 PM 80.6 °F 82.7 °F 66.2 °F 61% 29.72 in 10.0 mi West 11.5 mph - 0.00 in   Scattered Clouds
7:00 PM 80.6 °F 82.7 °F 66.2 °F 61% 29.72 in 10.0 mi West 9.2 mph - 0.00 in   Scattered Clouds
7:20 PM 80.6 °F 82.7 °F 66.2 °F 61% 29.72 in 10.0 mi West 9.2 mph - 0.00 in   Mostly Cloudy
7:40 PM 80.6 °F 82.7 °F 66.2 °F 61% 29.71 in 10.0 mi West 9.2 mph - 0.00 in   Scattered Clouds
8:00 PM 78.8 °F - 66.2 °F 65% 29.71 in 10.0 mi West 11.5 mph - 0.00 in   Scattered Clouds
8:20 PM 78.8 °F - 68.0 °F 69% 29.71 in 10.0 mi West 8.1 mph - 0.00 in   Mostly Cloudy
8:40 PM 77.0 °F - 68.0 °F 74% 29.71 in 10.0 mi West 8.1 mph - 0.00 in   Scattered Clouds
9:00 PM 75.2 °F - 68.0 °F 78% 29.71 in 10.0 mi West 6.9 mph - 0.00 in   Mostly Cloudy
9:20 PM 75.2 °F - 68.0 °F 78% 29.71 in 10.0 mi West 8.1 mph - 0.00 in   Mostly Cloudy
9:40 PM 75.2 °F - 68.0 °F 78% 29.70 in 10.0 mi West 4.6 mph - 0.00 in   Mostly Cloudy
10:00 PM 73.4 °F - 69.8 °F 88% 29.71 in 10.0 mi West 3.5 mph - 0.00 in   Scattered Clouds
10:20 PM 73.4 °F - 69.8 °F 88% 29.70 in 10.0 mi Calm Calm - 0.00 in   Scattered Clouds
10:40 PM 73.4 °F - 69.8 °F 88% 29.69 in 10.0 mi WSW 5.8 mph - 0.00 in   Partly Cloudy
11:00 PM 73.4 °F - 71.6 °F 94% 29.69 in 10.0 mi West 3.5 mph - 0.00 in   Clear
11:20 PM 73.4 °F - 71.6 °F 94% 29.68 in 10.0 mi West 5.8 mph - 0.00 in   Clear
11:40 PM 73.4 °F - 71.6 °F 94% 29.68 in 10.0 mi West 5.8 mph - 0.00 in   Clear